THORAD AGENA D DEB

Satellite information

Favourite Embed

Satellite Type and Status

DEBRISIN ORBIT

Key statistics

Satellite THORAD AGENA D DEB at a glance.

Uptime

20339

Days in orbit

Revolutions

≈ 14.4

Per day

Orbit

SSO

Sun Synchronous Orbit

Inclination

100.1

Latest

Satellite identification and parameters

Extended collection of information and parameters for THORAD AGENA D DEB.

Object identification

Identified? True

Debris? True

Object name: THORAD AGENA D DEB

International designator: 1970-025EA

Object number (NORAD): 4819

Object ID (CCSDS): 4819

Country: UNITED STATES OF AMERICA (US)

Current information (Y/N): Y

RCS size: SMALL

Orbital parameters

Period: 100.241 minutes

Inclination: 100.0981 deg

SMA: 7148.087 km

Apoapsis: 792.666 km

Periapsis: 747.239 km

RAAN: 330.7425 deg

Eccentricy: 0.00317754

Argument of periapsis: 78.9735 deg

Mean anomaly: 281.5017 deg

Mean motion: 14.36540824 rev/day

Mean motion (dot): 0.0001197 rev/day2

B* drag term: 0.0040635795 1/REarth

Two-line elements (TLE)

Creation date: Dec. 14, 2025, 3:07 a.m.

Reference frame: TEME

Reference center: EARTH

Epoch: Dec. 13, 2025, 10:50 a.m. UTC

TLE line 0: 0 THORAD AGENA D DEB

TLE line 1: 1 04819U 70025EA 25347.45142926 .00011970 00000-0 40636-2 0 9999

TLE line 2: 2 04819 100.0981 330.7425 0031775 78.9735 281.5017 14.36540824817477

Live tracking on map

Real-time ground track for satellite THORAD AGENA D DEB.

In-orbit conjunctions

A list of the most updated potential collisions computed for object THORAD AGENA D DEB.

Target Orbit TCA Probability of collision Miss distance Type
COSMOS 923 LEO 2024-11-04 04:55:51 0.00100052 91.0 (m) PAYLOAD
CZ-6A DEB LEO 2024-09-28 11:18:45 0.0006534453 278.0 (m) DEBRIS

Associated space launch

Meteorological research and development satellite

THORAD AGENA D DEB was lifted into orbit during the mission ‘Thorad SLV-2G Agena D | Nimbus 4’, on board a Thorad SLV-2G Agena D space rocket.

The launch took place on April 8, 1970, 8:17 a.m. from Space Launch Complex 2E.

For more information about the launch, click the button.

Launch to space Thorad SLV-2G Agena D | Nimbus 4
Thorad SLV-2G Agena D | Nimbus 4

Agency: N/A

Status: Launch Successful

Launch date: April 8, 1970, 8:17 a.m. UTC

Rocket: Thorad SLV-2G Agena D

Launch pad: Space Launch Complex 2E

Location: Vandenberg SFB, CA, USA

...

Latest news about this satellite

There are no fresh news available about this satellite. Check back as we update our databases every day.


Newsletter sign-up

Weekly statistics, charts and insights to help you stay on top of the space industry.